Location: Unspecified
(41.5000°N, 0.0000°E)
Time: 02:35:29
(UTC+00:00)

Vanguard 1 - Pass Details

Date: 25 June 2019
Orbit: 653 x 3830 km, 34.3° (Epoch: 14 October)

Event Time Altitude Azimuth Distance (km) Brightness Sun altitude
Exits shadow 23:55:42 31° 166° (SSE) 4,957 13.0 -25.1°
Maximum altitude 23:59:51 33° 147° (SSE) 4,621 13.0 -25.1°
Drops below altitude 10° 00:13:26 10° 92° (E) 5,155 13.7 -25.1°
Sets 00:17:15 0° 83° (E) 5,758 14.1 -25.0°
